Time,TemperatureF,DewpointF,PressureIn,WindDirection,WindDirectionDegrees,WindSpeedMPH,WindSpeedGustMPH,Humidity,HourlyPrecipIn,Conditions,Clouds,dailyrainin,SoftwareType,DateUTC
2013-02-11 08:42:00,73.0,66.0,30.06,SE,127,12.0,20.0,79,0.00,,,0.00,,2013-02-11 14:42:00,
2013-02-11 08:53:00,73.0,66.0,30.06,SE,127,12.0,20.0,79,0.00,,,0.00,,2013-02-11 14:53:00,
2013-02-11 09:02:00,74.0,66.0,30.06,SE,142,12.0,21.0,76,0.00,,,0.00,,2013-02-11 15:02:00,
2013-02-11 09:11:00,74.0,66.0,30.06,SE,142,12.0,21.0,76,0.00,,,0.00,,2013-02-11 15:11:00,
2013-02-11 09:22:00,74.0,66.0,30.07,SE,127,7.0,21.0,77,0.00,,,0.00,,2013-02-11 15:22:00,
2013-02-11 09:32:00,74.0,66.0,30.07,SE,142,10.0,22.0,77,0.00,,,0.00,,2013-02-11 15:32:00,
2013-02-11 09:42:00,75.0,67.0,30.08,ESE,118,12.0,19.0,76,0.00,,,0.00,,2013-02-11 15:42:00,
2013-02-11 09:52:00,75.0,67.0,30.08,ESE,118,12.0,19.0,76,0.00,,,0.00,,2013-02-11 15:52:00,
2013-02-11 10:02:00,75.0,67.0,30.08,East,97,12.0,19.0,76,0.00,,,0.00,,2013-02-11 16:02:00,
2013-02-11 10:11:00,75.0,67.0,30.08,East,97,12.0,19.0,76,0.00,,,0.00,,2013-02-11 16:11:00,
2013-02-11 10:22:00,75.0,67.0,30.08,SE,134,7.0,20.0,77,0.00,,,0.00,,2013-02-11 16:22:00,
2013-02-11 10:32:00,76.0,67.0,30.08,ESE,110,5.0,15.0,75,0.00,,,0.00,,2013-02-11 16:32:00,
2013-02-11 10:42:00,76.0,67.0,30.08,ESE,115,9.0,21.0,75,0.00,,,0.00,,2013-02-11 16:42:00,
2013-02-11 10:52:00,76.0,67.0,30.08,ESE,115,9.0,21.0,75,0.00,,,0.00,,2013-02-11 16:52:00,
2013-02-11 11:02:00,76.0,67.0,30.08,SSE,163,13.0,21.0,74,0.00,,,0.00,,2013-02-11 17:02:00,
2013-02-11 11:11:00,76.0,67.0,30.08,SSE,163,13.0,21.0,74,0.00,,,0.00,,2013-02-11 17:11:00,
2013-02-11 11:21:00,76.0,68.0,30.07,East,79,5.0,19.0,76,0.00,,,0.00,,2013-02-11 17:21:00,
2013-02-11 11:32:00,77.0,68.0,30.07,SE,138,9.0,19.0,74,0.00,,,0.00,,2013-02-11 17:32:00,
2013-02-11 11:42:00,77.0,68.0,30.07,SE,138,9.0,19.0,74,0.00,,,0.00,,2013-02-11 17:42:00,
2013-02-11 11:52:00,77.0,68.0,30.06,SE,140,12.0,22.0,73,0.00,,,0.00,,2013-02-11 17:52:00,
2013-02-11 12:02:00,77.0,68.0,30.06,East,95,12.0,22.0,73,0.00,,,0.00,,2013-02-11 18:02:00,
2013-02-11 12:11:00,77.0,68.0,30.06,East,95,12.0,22.0,73,0.00,,,0.00,,2013-02-11 18:11:00,
2013-02-11 12:21:00,77.0,68.0,30.05,SE,136,8.0,19.0,73,0.00,,,0.00,,2013-02-11 18:21:00,
2013-02-11 12:32:00,76.0,67.0,30.05,ESE,103,10.0,22.0,74,0.00,,,0.00,,2013-02-11 18:32:00,
2013-02-11 12:42:00,76.0,67.0,30.05,ESE,103,10.0,22.0,74,0.00,,,0.00,,2013-02-11 18:42:00,
2013-02-11 12:52:00,77.0,67.0,30.04,SE,128,6.0,19.0,72,0.00,,,0.00,,2013-02-11 18:52:00,
2013-02-11 13:02:00,78.0,67.0,30.03,ESE,109,10.0,21.0,70,0.00,,,0.00,,2013-02-11 19:02:00,
2013-02-11 13:11:00,79.0,67.0,30.03,East,96,1.0,21.0,67,0.00,,,0.00,,2013-02-11 19:11:00,
2013-02-11 13:21:00,79.0,67.0,30.03,East,96,1.0,21.0,67,0.00,,,0.00,,2013-02-11 19:21:00,
2013-02-11 13:32:00,78.0,66.0,30.02,ESE,115,12.0,22.0,67,0.00,,,0.00,,2013-02-11 19:32:00,
2013-02-11 13:42:00,78.0,66.0,30.02,ESE,115,12.0,22.0,67,0.00,,,0.00,,2013-02-11 19:42:00,
2013-02-11 13:51:00,78.0,67.0,30.02,SE,137,14.0,24.0,69,0.00,,,0.00,,2013-02-11 19:51:00,
2013-02-11 14:01:00,79.0,67.0,30.01,SE,138,13.0,22.0,66,0.00,,,0.00,,2013-02-11 20:01:00,
2013-02-11 14:11:00,80.0,68.0,30.01,ESE,113,10.0,19.0,66,0.00,,,0.00,,2013-02-11 20:11:00,
2013-02-11 14:21:00,80.0,68.0,30.01,ESE,113,10.0,19.0,66,0.00,,,0.00,,2013-02-11 20:21:00,
2013-02-11 14:32:00,80.0,68.0,30.01,SE,140,10.0,18.0,66,0.00,,,0.00,,2013-02-11 20:32:00,
2013-02-11 14:42:00,79.0,67.0,30.01,ESE,106,8.0,19.0,67,0.00,,,0.00,,2013-02-11 20:42:00,
2013-02-11 14:52:00,79.0,67.0,30.01,ESE,106,8.0,19.0,67,0.00,,,0.00,,2013-02-11 20:52:00,
2013-02-11 15:02:00,79.0,67.0,30.00,ESE,109,7.0,19.0,66,0.00,,,0.00,,2013-02-11 21:02:00,
2013-02-11 15:11:00,79.0,67.0,30.00,East,99,9.0,18.0,66,0.00,,,0.00,,2013-02-11 21:11:00,
2013-02-11 15:21:00,79.0,67.0,30.00,East,99,9.0,18.0,66,0.00,,,0.00,,2013-02-11 21:21:00,
2013-02-11 15:32:00,79.0,67.0,30.00,ESE,112,7.0,18.0,66,0.00,,,0.00,,2013-02-11 21:32:00,
2013-02-11 15:42:00,79.0,67.0,30.00,ESE,112,7.0,18.0,66,0.00,,,0.00,,2013-02-11 21:42:00,
2013-02-11 15:52:00,79.0,67.0,30.00,ESE,102,9.0,15.0,67,0.00,,,0.00,,2013-02-11 21:52:00,
2013-02-11 16:02:00,78.0,66.0,30.00,SE,131,11.0,19.0,67,0.00,,,0.00,,2013-02-11 22:02:00,
2013-02-11 16:11:00,77.0,66.0,30.00,ESE,119,9.0,19.0,70,0.00,,,0.00,,2013-02-11 22:11:00,
2013-02-11 16:22:00,77.0,66.0,30.00,ESE,119,9.0,19.0,70,0.00,,,0.00,,2013-02-11 22:22:00,
2013-02-11 16:32:00,78.0,67.0,30.00,SSE,148,4.0,18.0,70,0.00,,,0.00,,2013-02-11 22:32:00,
2013-02-11 16:42:00,78.0,67.0,30.00,SSE,148,4.0,18.0,70,0.00,,,0.00,,2013-02-11 22:42:00,
2013-02-11 16:52:00,78.0,68.0,29.99,SE,135,7.0,19.0,71,0.00,,,0.00,,2013-02-11 22:52:00,
2013-02-11 17:02:00,78.0,68.0,29.99,ESE,103,6.0,19.0,71,0.00,,,0.00,,2013-02-11 23:02:00,
2013-02-11 17:11:00,78.0,68.0,29.99,ESE,103,6.0,19.0,71,0.00,,,0.00,,2013-02-11 23:11:00,
2013-02-11 17:21:00,77.0,68.0,29.99,SE,146,8.0,21.0,73,0.00,,,0.00,,2013-02-11 23:21:00,
2013-02-11 17:32:00,76.0,67.0,29.99,ESE,120,9.0,14.0,74,0.00,,,0.00,,2013-02-11 23:32:00,
2013-02-11 17:42:00,76.0,67.0,29.99,ESE,120,9.0,14.0,74,0.00,,,0.00,,2013-02-11 23:42:00,
2013-02-11 17:52:00,76.0,67.0,30.00,ESE,118,3.0,14.0,75,0.00,,,0.00,,2013-02-11 23:52:00,
2013-02-11 18:02:00,75.0,67.0,30.00,SE,132,0.0,13.0,77,0.00,,,0.00,,2013-02-12 00:02:00,
2013-02-11 18:11:00,75.0,67.0,30.00,SE,132,0.0,13.0,77,0.00,,,0.00,,2013-02-12 00:11:00,
2013-02-11 18:22:00,75.0,68.0,30.00,ESE,112,4.0,12.0,78,0.00,,,0.00,,2013-02-12 00:22:00,
2013-02-11 18:32:00,74.0,67.0,30.00,SE,134,3.0,9.0,79,0.00,,,0.00,,2013-02-12 00:32:00,
2013-02-11 18:42:00,74.0,67.0,30.00,SE,134,3.0,9.0,79,0.00,,,0.00,,2013-02-12 00:42:00,
2013-02-11 18:52:00,74.0,67.0,30.00,SE,142,2.0,10.0,80,0.00,,,0.00,,2013-02-12 00:52:00,
2013-02-11 19:02:00,73.0,67.0,30.00,SE,138,1.0,8.0,81,0.00,,,0.00,,2013-02-12 01:02:00,
2013-02-11 19:11:00,73.0,67.0,30.00,SE,138,1.0,8.0,81,0.00,,,0.00,,2013-02-12 01:11:00,
2013-02-11 19:21:00,73.0,67.0,30.00,ESE,111,2.0,11.0,82,0.00,,,0.00,,2013-02-12 01:21:00,
2013-02-11 19:32:00,73.0,67.0,30.01,SE,126,0.0,6.0,82,0.00,,,0.00,,2013-02-12 01:32:00,
2013-02-11 19:42:00,73.0,67.0,30.01,SE,126,0.0,6.0,82,0.00,,,0.00,,2013-02-12 01:42:00,
2013-02-11 19:51:00,72.0,67.0,30.01,ESE,123,0.0,0.0,83,0.00,,,0.00,,2013-02-12 01:51:00,
2013-02-11 20:01:00,72.0,67.0,30.01,ESE,121,0.0,7.0,84,0.00,,,0.00,,2013-02-12 02:01:00,
2013-02-11 20:12:00,72.0,67.0,30.02,SE,135,0.0,8.0,85,0.00,,,0.00,,2013-02-12 02:12:00,
2013-02-11 20:21:00,72.0,67.0,30.02,SE,135,0.0,8.0,85,0.00,,,0.00,,2013-02-12 02:21:00,
2013-02-11 20:32:00,72.0,67.0,30.02,ESE,122,1.0,6.0,85,0.00,,,0.00,,2013-02-12 02:32:00,
2013-02-11 20:42:00,72.0,67.0,30.02,ESE,122,1.0,6.0,85,0.00,,,0.00,,2013-02-12 02:42:00,
2013-02-11 20:52:00,72.0,68.0,30.02,SE,144,0.0,6.0,86,0.00,,,0.00,,2013-02-12 02:52:00,
2013-02-11 21:02:00,72.0,68.0,30.02,ESE,122,2.0,9.0,86,0.00,,,0.00,,2013-02-12 03:02:00,
2013-02-11 21:11:00,72.0,68.0,30.02,ESE,122,2.0,9.0,86,0.00,,,0.00,,2013-02-12 03:11:00,
2013-02-11 21:21:00,71.0,67.0,30.03,ESE,117,0.0,5.0,86,0.00,,,0.00,,2013-02-12 03:21:00,
2013-02-11 21:32:00,71.0,67.0,30.03,ESE,114,2.0,11.0,86,0.00,,,0.00,,2013-02-12 03:32:00,
2013-02-11 21:42:00,71.0,67.0,30.03,SE,136,2.0,10.0,86,0.00,,,0.00,,2013-02-12 03:42:00,
2013-02-11 21:51:00,71.0,67.0,30.03,SE,136,2.0,10.0,86,0.00,,,0.00,,2013-02-12 03:51:00,
2013-02-11 22:01:00,71.0,67.0,30.03,SE,126,1.0,10.0,86,0.00,,,0.00,,2013-02-12 04:01:00,
2013-02-11 22:11:00,71.0,67.0,30.03,SE,126,1.0,10.0,86,0.00,,,0.00,,2013-02-12 04:11:00,
2013-02-11 22:21:00,71.0,67.0,30.03,ESE,117,0.0,6.0,86,0.00,,,0.00,,2013-02-12 04:21:00,
2013-02-11 22:31:00,71.0,67.0,30.03,SE,128,0.0,8.0,87,0.00,,,0.00,,2013-02-12 04:31:00,
2013-02-11 22:41:00,71.0,67.0,30.03,SE,128,0.0,8.0,87,0.00,,,0.00,,2013-02-12 04:41:00,
2013-02-11 22:51:00,71.0,67.0,30.03,SE,124,0.0,9.0,87,0.00,,,0.00,,2013-02-12 04:51:00,
2013-02-11 23:01:00,71.0,67.0,30.03,SE,130,2.0,8.0,88,0.00,,,0.00,,2013-02-12 05:01:00,
2013-02-11 23:11:00,71.0,67.0,30.03,SE,130,2.0,8.0,88,0.00,,,0.00,,2013-02-12 05:11:00,
2013-02-11 23:21:00,71.0,67.0,30.03,SE,130,2.0,8.0,88,0.00,,,0.00,,2013-02-12 05:21:00,
2013-02-11 23:31:00,71.0,67.0,30.03,SE,130,2.0,8.0,88,0.00,,,0.00,,2013-02-12 05:31:00,